Darstellungsparameter: Aktuell verwendete Einstellungen:
Skalierung der Graphiken ... ?
xyx+y,   Skalierungsfaktor:      Skalierung: Modus: x, Faktor: 1
Darstellungszeitraum ... ?
Vom - - bis: - -   Zeitraum: 15.02.2016 - 14.08.2016
Min/Max/Avg-Anzeige ... ?
Zeige MMA aktuell
Zeige MMA Monat
Zeige MMA alles
Zeige --A aktuell
Zeige --A Monat
Zeige --A alles
Keine MMA-Anzeige
MMA:
Keine MMA-Graphiken
MMA-Basis: 15.02.2016 - 14.08.2016
Quicknavigation für Darstellung... ?
Tage:      1T, 2T, 3T, 5T -1T -2T -3T -5T +1T +2T +3T +5T
Wochen: 1W, 2W, 3W -1W -2W -3W +1W +2W +3W
Monate: 1M, 3M, 6M -1M -3M -6M +1M +3M +6M
Jahre:    1J, 3J, 5J, 10J -1J -3J -5J -10J +1J +3J +5J +10J
Nutze für die Darstellung ... ?
Originaldaten oder ...
Mittelwerte Minima Maxima auf...
Stundenbasis Tagesbasis Wochenbasis
Monatsbasis Jahresbasis      Datenbasis: Mittelwerte auf Tagesbasis
Darstellen als:
Statistik (Auto) Statistik J:M      Darstellung:
Zur Graphik,    zurück zur Übersicht aller Sensoren.
 
Tabellarische Datenbersicht: ?
 
Sensor: Nr:Datum:Temp:Feuchte:Taupunkt:
Aussen-T/F 1 15-02-2016 00:00:00 2.20278 C 91.7396 % 1 C
2 16-02-2016 00:00:00 0.19792 C 81.4688 % -2.59 C
3 17-02-2016 00:00:00 0.40625 C 88.6771 % -1.24 C
4 18-02-2016 00:00:00 2.11285 C 85.4514 % -0.07 C
5 19-02-2016 00:00:00 1.43507 C 92.3472 % 0.33 C
6 20-02-2016 00:00:00 6.41528 C 92.1944 % 5.24 C
7 21-02-2016 00:00:00 11.8375 C 88.1042 % 9.93 C
8 22-02-2016 00:00:00 9.57778 C 85.1250 % 7.21 C
9 23-02-2016 00:00:00 2.26424 C 95.8333 % 1.67 C
10 24-02-2016 00:00:00 2.15243 C 91.2674 % 0.88 C
11 25-02-2016 00:00:00 0.66597 C 90.3507 % -0.73 C
12 26-02-2016 00:00:00 2.36771 C 85.4931 % 0.19 C
13 27-02-2016 00:00:00 2.35694 C 77.3333 % -1.19 C
14 28-02-2016 00:00:00 2.12509 C 77.4145 % -1.4 C
15 29-02-2016 00:00:00 3.32569 C 70.7847 % -1.46 C
16 01-03-2016 00:00:00 1.1875 C 81.7361 % -1.58 C
17 02-03-2016 00:00:00 6.5125 C 83.4375 % 3.91 C
18 03-03-2016 00:00:00 3.61736 C 87.0208 % 1.66 C
19 04-03-2016 00:00:00 1.76528 C 93.4722 % 0.83 C
20 05-03-2016 00:00:00 4.32153 C 92.1042 % 3.16 C
21 06-03-2016 00:00:00 3.0434 C 94.2535 % 2.21 C
22 07-03-2016 00:00:00 2.40347 C 93.7049 % 1.5 C
23 08-03-2016 00:00:00 1.75521 C 90.5972 % 0.39 C
24 09-03-2016 00:00:00 2.60799 C 83.1042 % 0.04 C
25 10-03-2016 00:00:00 2.73576 C 83.8264 % 0.28 C
Sensor: Nr:Datum:Temp:Feuchte:Taupunkt:
Aussen-T/F 26 11-03-2016 00:00:00 4.25868 C 83.4757 % 1.71 C
27 12-03-2016 00:00:00 4.36424 C 78.1215 % 0.9 C
28 13-03-2016 00:00:00 5.06944 C 77.3924 % 1.45 C
29 14-03-2016 00:00:00 4.20451 C 71.0174 % -0.57 C
30 15-03-2016 00:00:00 3.53264 C 80.5833 % 0.52 C
31 16-03-2016 00:00:00 4.7066 C 73.0556 % 0.3 C
32 17-03-2016 00:00:00 4.57049 C 75.0625 % 0.54 C
33 18-03-2016 00:00:00 3.8934 C 83.0868 % 1.29 C
34 19-03-2016 00:00:00 5.67465 C 87.0938 % 3.7 C
35 20-03-2016 00:00:00 5.89583 C 80.9514 % 2.88 C
36 21-03-2016 00:00:00 7.0625 C 84.7813 % 4.68 C
37 22-03-2016 00:00:00 8.10035 C 79.6354 % 4.8 C
38 23-03-2016 00:00:00 7.93438 C 81.8576 % 5.03 C
39 24-03-2016 00:00:00 7.05069 C 85.9410 % 4.86 C
40 25-03-2016 00:00:00 6.93125 C 92.5347 % 5.81 C
41 26-03-2016 00:00:00 9.02778 C 82.5382 % 6.22 C
42 27-03-2016 00:00:00 9.36558 C 82.0543 % 6.46 C
43 28-03-2016 00:00:00 8.24167 C 84.3993 % 5.77 C
44 29-03-2016 00:00:00 9.19792 C 74.2535 % 4.86 C
45 30-03-2016 00:00:00 9.98958 C 84.7431 % 7.54 C
46 31-03-2016 00:00:00 7.10243 C 92.7153 % 6 C
47 01-04-2016 00:00:00 7.02396 C 85.1076 % 4.7 C
48 02-04-2016 00:00:00 8.56007 C 85.2361 % 6.23 C
49 03-04-2016 00:00:00 13.56285 C 81.3472 % 10.43 C
50 04-04-2016 00:00:00 13.63299 C 81.7951 % 10.58 C
Sensor: Nr:Datum:Temp:Feuchte:Taupunkt:
Aussen-T/F 51 05-04-2016 00:00:00 11.25069 C 92.5313 % 10.09 C
52 06-04-2016 00:00:00 10.87153 C 79.3507 % 7.44 C
53 07-04-2016 00:00:00 8.49479 C 75.7014 % 4.46 C
54 08-04-2016 00:00:00 6.48403 C 79.6181 % 3.22 C
55 09-04-2016 00:00:00 8.00139 C 72.3785 % 3.34 C
56 10-04-2016 00:00:00 11.74757 C 69.9479 % 6.45 C
57 11-04-2016 00:00:00 12.00972 C 70.4757 % 6.81 C
58 12-04-2016 00:00:00 11.31181 C 78.9861 % 7.8 C
59 13-04-2016 00:00:00 8.81354 C 93.8854 % 7.88 C
60 14-04-2016 00:00:00 10.59722 C 80.6215 % 7.41 C
61 15-04-2016 00:00:00 13.04618 C 74.1493 % 8.55 C
62 16-04-2016 00:00:00 11.99514 C 81.5035 % 8.93 C
63 17-04-2016 00:00:00 8.41111 C 77.1875 % 4.65 C
64 18-04-2016 00:00:00 7.11632 C 74.6910 % 2.94 C
65 19-04-2016 00:00:00 8.83507 C 72.7292 % 4.22 C
66 20-04-2016 00:00:00 9.1559 C 66.4826 % 3.25 C
67 21-04-2016 00:00:00 11.43229 C 64.2431 % 4.93 C
68 22-04-2016 00:00:00 13.17674 C 62.2014 % 6.11 C
69 23-04-2016 00:00:00 7.88299 C 78.2292 % 4.33 C
70 24-04-2016 00:00:00 5.24444 C 78.5243 % 1.82 C
71 25-04-2016 00:00:00 4.71632 C 85.9792 % 2.58 C
72 26-04-2016 00:00:00 4.5934 C 82.9306 % 1.95 C
73 27-04-2016 00:00:00 5.57465 C 78.2847 % 2.1 C
74 28-04-2016 00:00:00 6.65 C 71.1007 % 1.8 C
75 29-04-2016 00:00:00 7.88056 C 69.0972 % 2.58 C
Sensor: Nr:Datum:Temp:Feuchte:Taupunkt:
Aussen-T/F 76 30-04-2016 00:00:00 7.70174 C 83.3611 % 5.06 C
77 01-05-2016 00:00:00 10.10486 C 81.5451 % 7.09 C
78 02-05-2016 00:00:00 12.06389 C 73.2674 % 7.43 C
79 03-05-2016 00:00:00 10.93785 C 75.7222 % 6.83 C
80 04-05-2016 00:00:00 9.10035 C 68.4063 % 3.6 C
81 05-05-2016 00:00:00 11.45347 C 67.3507 % 5.63 C
82 06-05-2016 00:00:00 15.34618 C 68.6806 % 9.63 C
83 07-05-2016 00:00:00 16.83542 C 65.2604 % 10.28 C
84 08-05-2016 00:00:00 18.59861 C 52.5521 % 8.72 C
85 09-05-2016 00:00:00 18.28715 C 61.7326 % 10.82 C
86 10-05-2016 00:00:00 17.08646 C 77.6076 % 13.15 C
87 11-05-2016 00:00:00 17.43438 C 75.9340 % 13.15 C
88 12-05-2016 00:00:00 17.84271 C 69.8472 % 12.27 C
89 13-05-2016 00:00:00 14.31736 C 89.5903 % 12.63 C
90 14-05-2016 00:00:00 10.45972 C 71.9549 % 5.63 C
91 15-05-2016 00:00:00 9.07743 C 70.0069 % 3.91 C
92 16-05-2016 00:00:00 9.98819 C 70.5069 % 4.88 C
93 17-05-2016 00:00:00 12.31563 C 69.0139 % 6.8 C
94 18-05-2016 00:00:00 14.47535 C 74.1007 % 9.92 C
95 19-05-2016 00:00:00 14.04722 C 75.6667 % 9.82 C
96 20-05-2016 00:00:00 14.08125 C 79.6771 % 10.63 C
97 21-05-2016 00:00:00 17.67708 C 74.5382 % 13.1 C
98 22-05-2016 00:00:00 18.70312 C 72.9201 % 13.75 C
99 23-05-2016 00:00:00 14.01632 C 83.2743 % 11.23 C
100 24-05-2016 00:00:00 10.97431 C 91.3264 % 9.62 C
Sensor: Nr:Datum:Temp:Feuchte:Taupunkt:
Aussen-T/F 101 25-05-2016 00:00:00 12.7125 C 87.5069 % 10.69 C
102 26-05-2016 00:00:00 14.89826 C 81.0938 % 11.69 C
103 27-05-2016 00:00:00 16.77849 C 90.6534 % 15.24 C
104 28-05-2016 00:00:00 18.08383 C 88.8922 % 16.22 C
105 29-05-2016 00:00:00 17.36528 C 89.6007 % 15.64 C
106 30-05-2016 00:00:00 17.49722 C 93.2639 % 16.4 C
107 31-05-2016 00:00:00 16.51458 C 87.4861 % 14.43 C
108 01-06-2016 00:00:00 15.69931 C 94.7153 % 14.85 C
109 02-06-2016 00:00:00 17.51979 C 92.0035 % 16.21 C
110 03-06-2016 00:00:00 16.76875 C 94.6806 % 15.91 C
111 04-06-2016 00:00:00 17.85104 C 90.8472 % 16.34 C
112 05-06-2016 00:00:00 19.18611 C 89.0486 % 17.34 C
113 06-06-2016 00:00:00 19.18785 C 86.9896 % 16.97 C
114 07-06-2016 00:00:00 19.88403 C 82.1597 % 16.75 C
115 08-06-2016 00:00:00 19.56354 C 77.2500 % 15.47 C
116 09-06-2016 00:00:00 17.3191 C 71.5556 % 12.13 C
117 10-06-2016 00:00:00 16.15521 C 71.4444 % 10.99 C
118 11-06-2016 00:00:00 17.56701 C 74.5035 % 12.99 C
119 12-06-2016 00:00:00 17.18299 C 86.9931 % 15 C
120 13-06-2016 00:00:00 15.94479 C 94.8472 % 15.12 C
121 14-06-2016 00:00:00 16.36597 C 87.8507 % 14.35 C
122 15-06-2016 00:00:00 15.42431 C 86.9340 % 13.26 C
123 16-06-2016 00:00:00 13.77292 C 93.5903 % 12.76 C
124 17-06-2016 00:00:00 14.68889 C 90.7882 % 13.2 C
125 18-06-2016 00:00:00 14.84861 C 87.4549 % 12.79 C
Sensor: Nr:Datum:Temp:Feuchte:Taupunkt:
Aussen-T/F 126 19-06-2016 00:00:00 15.40278 C 75.9653 % 11.19 C
127 20-06-2016 00:00:00 14.61979 C 81.8958 % 11.56 C
128 21-06-2016 00:00:00 18.21736 C 88.4757 % 16.28 C
129 22-06-2016 00:00:00 20.84792 C 87.8333 % 18.76 C
130 23-06-2016 00:00:00 23.76528 C 81.5243 % 20.41 C
131 24-06-2016 00:00:00 22.11979 C 90.4826 % 20.49 C
132 25-06-2016 00:00:00 16.85451 C 95.9306 % 16.2 C
133 26-06-2016 00:00:00 15.41562 C 85.3854 % 12.98 C
134 27-06-2016 00:00:00 15.91562 C 86.7743 % 13.72 C
135 28-06-2016 00:00:00 18.26597 C 84.3646 % 15.58 C
136 29-06-2016 00:00:00 19.04444 C 74.5521 % 14.42 C
137 30-06-2016 00:00:00 18.7566 C 80.8264 % 15.4 C
138 01-07-2016 00:00:00 19.88194 C 81.0556 % 16.54 C
139 02-07-2016 00:00:00 16.90868 C 78.6840 % 13.18 C
140 03-07-2016 00:00:00 15.21559 C 83.5437 % 12.45 C
141 04-07-2016 00:00:00 17.43333 C 82.9201 % 14.5 C
142 05-07-2016 00:00:00 19.40903 C 78.1979 % 15.51 C
143 06-07-2016 00:00:00 16.61042 C 74.0104 % 11.96 C
144 07-07-2016 00:00:00 17.08576 C 77.8785 % 13.2 C
145 08-07-2016 00:00:00 18.87222 C 80.7292 % 15.49 C
146 09-07-2016 00:00:00 21.08889 C 76.2778 % 16.75 C
147 10-07-2016 00:00:00 21.92535 C 79.2431 % 18.17 C
148 11-07-2016 00:00:00 21.61701 C 73.7326 % 16.73 C
149 12-07-2016 00:00:00 19.06354 C 74.7049 % 14.47 C
150 13-07-2016 00:00:00 14.71319 C 91.3750 % 13.32 C
Sensor: Nr:Datum:Temp:Feuchte:Taupunkt:
Aussen-T/F 151 14-07-2016 00:00:00 14.94583 C 79.4063 % 11.42 C
152 15-07-2016 00:00:00 16.08229 C 74.0417 % 11.46 C
153 16-07-2016 00:00:00 16.98542 C 83.0451 % 14.09 C
154 17-07-2016 00:00:00 21.34757 C 80.4132 % 17.84 C
155 18-07-2016 00:00:00 21.85069 C 75.3924 % 17.3 C
156 19-07-2016 00:00:00 21.61667 C 78.1597 % 17.65 C
157 20-07-2016 00:00:00 23.34097 C 74.8785 % 18.63 C
158 21-07-2016 00:00:00 21.23924 C 86.6632 % 18.93 C
159 22-07-2016 00:00:00 20.96806 C 88.7674 % 19.04 C
160 23-07-2016 00:00:00 20.3434 C 91.5104 % 18.91 C
161 24-07-2016 00:00:00 22.0941 C 85.4583 % 19.54 C
162 25-07-2016 00:00:00 21.8191 C 81.6910 % 18.55 C
163 26-07-2016 00:00:00 20.20208 C 86.3333 % 17.85 C
164 27-07-2016 00:00:00 19.62986 C 81.0313 % 16.29 C
165 28-07-2016 00:00:00 20.20174 C 82.7986 % 17.18 C
166 29-07-2016 00:00:00 19.81042 C 85.1319 % 17.24 C
167 30-07-2016 00:00:00 20.55278 C 78.7326 % 16.73 C
168 31-07-2016 00:00:00 18.14444 C 80.7535 % 14.79 C
169 01-08-2016 00:00:00 16.63958 C 78.4757 % 12.88 C
170 02-08-2016 00:00:00 16.16875 C 92.2986 % 14.92 C
171 03-08-2016 00:00:00 18.55174 C 94.0938 % 17.58 C
172 04-08-2016 00:00:00 18.01667 C 94.7188 % 17.16 C
173 05-08-2016 00:00:00 16.58403 C 88.5486 % 14.69 C
174 06-08-2016 00:00:00 17.59097 C 86.3924 % 15.29 C
175 07-08-2016 00:00:00 18.92153 C 81.4306 % 15.67 C
Sensor: Nr:Datum:Temp:Feuchte:Taupunkt:
Aussen-T/F 176 08-08-2016 00:00:00 19.25521 C 77.6701 % 15.26 C
177 09-08-2016 00:00:00 16.42986 C 72.2361 % 11.42 C
178 10-08-2016 00:00:00 13.02465 C 80.0243 % 9.66 C
179 11-08-2016 00:00:00 12.3 C 83.5417 % 9.6 C
180 12-08-2016 00:00:00 17.31701 C 90.8264 % 15.8 C
181 13-08-2016 00:00:00 20.62604 C 78.3715 % 16.73 C
182 14-08-2016 00:00:00 19.08924 C 80.5139 % 15.66 C

Maximal/Minimal-Werte vom 15.02.2016 - 14.08.2016

Sensor Min Max Avg
Temp
(Aussen-T/F)
-3.6 °C
01-03-2016  07:15:00
35.4 °C
20-07-2016  17:10:00
12.66 °C
Feuchte
(Aussen-T/F)
26 %
07-05-2016  18:10:00
98 %
14-04-2016  10:40:00
81.58 %
Taupunkt
(Aussen-T/F)
-2.59 C
16-02-2016  00:00:00
20.49 C
24-06-2016  00:00:00
9.49 C

Die Daten stammen von einer Davis Vantage Pro 2 Wetter-Station und werden unter Linux mit der Software wview2wettercgi und aufbereitet. Alle Angaben erfolgen ohne Gewähr für ihre Vollständigkeit oder Richtigkeit.
Kontakt: Rainer Krienke krienke@uni-koblenz.de . Meine Webseiten an der Uni Koblenz oder privat.
Version: $Revision: 0.78 $